Starlink 31242

operational
NORAD ID: 58864 Int'l Des: 2024-019 Owner: SPXS Country: US Constellation: starlink
LEOCIRCULAR

关于 Starlink 31242

正在加载描述...

实时位置

正在加载3D地球...

即将过境

高度历史

Altitude vs Time

uPlot chart will show altitude changes over time

两行轨道根数

1 58864U 24019M 25258.98521962 .00001322 00000-0 57557-4 0 9992
2 58864 43.0016 155.5593 0001435 271.1539 88.9148 15.27587787 92366
Epoch: Sep 15, 2025 • Age: 48 hours

当前状态

高度 482.9 km
速度 7.63 km/s
星下点 18.68°N, 44.74°W
发射日期 Jan 29, 2024
运行时间 1.6 years
类型 internet

技术详情

分类 Payload
质量 730.00 kg
干质量 700.00 kg
总质量 730.00 kg
长度 0.30 m
直径 4.10 m
跨度 29.00 m
形状 Box + pan
制造商 SPXS
平台类型 Starlink V2M
阶段状态 In Orbit
所有者/国家 SPXS/US

大型星座

Loading constellations...